Location: Easthampton
(42.2676°N, 72.6690°W)
Time: 13:36:11
(UTC+00:00)

SO-50 - Visible Passes

Search period start: 25 March 2023 00:00
Search period end: 04 April 2023 00:00
Orbit: 585 x 692 km, 64.6° (Epoch: 24 March)

Date Brightness Start Highest point End Pass type
(mag) Time Alt. Az. Time Alt. Az. Time Alt. Az.
25 Mar ? 07:09:24 11° N 07:09:24 11° N 07:09:54 10° N visible
27 Mar ? 06:17:15 10° N 06:17:15 10° N 06:17:18 10° N visible
01 Apr ? 09:56:44 10° N 09:59:19 14° NE 10:01:53 10° ENE visible
03 Apr ? 09:04:32 10° NNE 09:05:40 11° NNE 09:06:50 10° NE visible
